W2GRK-15 Weather Reports


Display with metric or nautical units.
time (UTC)temp
F
wind
direction
speed
MPH
gust
MPH
rain 1hr
in
rain 24hr
in
rain mn
in
humidity
%
barometer
mb
20260504141318 63 185 4.0 6.0 0.00 0.00 0.00 47 1014.0
20260504141230 63 195 4.0 7.0 0.00 0.00 0.00 48 1013.9
20260504141126 63 224 5.0 9.0 0.00 0.00 0.00 47 1014.0
20260504141022 63 210 6.0 7.0 0.00 0.00 0.00 47 1013.7
20260504140917 63 200 5.0 9.0 0.00 0.00 0.00 49 1013.8
20260504140849 62 196 6.0 9.0 0.00 0.00 0.00 50 1013.9
20260504140724 63 196 6.0 9.0 0.00 0.00 0.00 49 1013.9
20260504140619 63 177 4.0 9.0 0.00 0.00 0.00 49 1013.7
20260504140515 63 204 6.0 9.0 0.00 0.00 0.00 50 1013.8
20260504140427 63 195 4.0 7.0 0.00 0.00 0.00 50 1013.8
20260504140343 62 227 3.0 5.0 0.00 0.00 0.00 49 1014.0
20260504140218 62 204 3.0 7.0 0.00 0.00 0.00 51 1013.8
20260504140150 62 195 5.0 9.0 0.00 0.00 0.00 50 1013.8
20260504130716 59 192 4.0 6.0 0.00 0.00 0.00 55 1014.5
20260504130628 59 197 4.0 6.0 0.00 0.00 0.00 55 1014.6
20260504130544 59 205 4.0 5.0 0.00 0.00 0.00 56 1014.5
20260504130419 59 190 5.0 7.0 0.00 0.00 0.00 55 1014.5
20260504130331 59 186 4.0 7.0 0.00 0.00 0.00 56 1014.7
20260504130226 59 221 2.0 9.0 0.00 0.00 0.00 55 1014.6
20260504130122 59 208 4.0 7.0 0.00 0.00 0.00 55 1014.5
20260504120219 53 196 3.0 3.0 0.00 0.00 0.00 65 1014.9
20260504120151 53 304 3.0 5.0 0.00 0.00 0.00 64 1015.0
20260504110629 47 210 3.0 4.0 0.00 0.00 0.00 70 1015.2
20260504110525 47 189 1.0 4.0 0.00 0.00 0.00 70 1015.2
20260504110420 47 181 2.0 3.0 0.00 0.00 0.00 71 1015.2
20260504110316 47 188 2.0 4.0 0.00 0.00 0.00 71 1015.2
20260504110227 47 200 1.0 3.0 0.00 0.00 0.00 71 1015.2
20260504110123 46 202 2.0 3.0 0.00 0.00 0.00 71 1015.1
20260504100516 42 37 0.0 2.0 0.00 0.00 0.00 79 1014.9
20260504100428 42 303 0.0 2.0 0.00 0.00 0.00 79 1015.1
20260504100324 41 71 1.0 2.0 0.00 0.00 0.00 80 1014.9
20260504100240 41 0.0 1.0 0.00 0.00 0.00 79 1015.1
20260504100115 41 0.0 2.0 0.00 0.00 0.00 79 1015.0
20260504090125 43 115 1.0 2.0 0.00 0.00 0.00 74 1014.8
20260504081916 45 176 1.0 2.0 0.00 0.00 0.00 65 1014.6
20260504081828 45 186 2.0 3.0 0.00 0.00 0.00 66 1014.7
20260504081724 45 197 2.0 4.0 0.00 0.00 0.00 66 1014.6
20260504081619 45 194 2.0 3.0 0.00 0.00 0.00 66 1014.5
20260504081515 45 190 1.0 3.0 0.00 0.00 0.00 66 1014.5
20260504081427 45 193 2.0 3.0 0.00 0.00 0.00 66 1014.5
20260504081322 45 199 2.0 3.0 0.00 0.00 0.00 66 1014.5
20260504081218 45 209 2.0 2.0 0.00 0.00 0.00 65 1014.4
20260504081130 45 205 2.0 2.0 0.00 0.00 0.00 66 1014.4
20260504081045 45 218 2.0 3.0 0.00 0.00 0.00 66 1014.3
20260504080921 45 178 1.0 3.0 0.00 0.00 0.00 66 1014.6
20260504080816 45 198 2.0 3.0 0.00 0.00 0.00 67 1014.6
20260504080728 45 188 2.0 3.0 0.00 0.00 0.00 68 1014.5
20260504080623 45 180 2.0 3.0 0.00 0.00 0.00 68 1014.5
20260504080519 45 182 2.0 3.0 0.00 0.00 0.00 68 1014.3
20260504080431 45 178 3.0 3.0 0.00 0.00 0.00 68 1014.4
20260504080326 46 198 2.0 4.0 0.00 0.00 0.00 68 1014.5
20260504080222 46 208 3.0 3.0 0.00 0.00 0.00 67 1014.5
20260504080117 46 185 2.0 3.0 0.00 0.00 0.00 67 1014.2
20260504070320 49 241 3.0 4.0 0.00 0.00 0.00 55 1014.3
20260504070231 49 169 1.0 2.0 0.00 0.00 0.00 55 1014.3
20260504070146 49 200 2.0 4.0 0.00 0.00 0.00 55 1014.2
20260504060224 49 183 2.0 5.0 0.00 0.00 0.00 55 1014.2
20260504060140 49 198 2.0 3.0 0.00 0.00 0.00 55 1014.1
20260504050723 49 206 2.0 3.0 0.00 0.00 0.00 55 1013.8
20260504050619 49 199 1.0 2.0 0.00 0.00 0.00 54 1013.9
20260504050531 49 202 1.0 3.0 0.00 0.00 0.00 54 1014.0
20260504050426 49 181 2.0 4.0 0.00 0.00 0.00 54 1014.1
20260504050322 49 247 1.0 2.0 0.00 0.00 0.00 54 1013.9
20260504050237 49 196 3.0 4.0 0.00 0.00 0.00 54 1013.9
20260504050149 49 202 2.0 3.0 0.00 0.00 0.00 55 1013.9
20260504050024 49 187 2.0 3.0 0.00 0.00 0.00 54 1013.8
20260504045920 49 224 1.0 3.0 0.00 0.00 0.00 54 1013.7
20260504045816 49 175 1.0 2.0 0.00 0.00 0.00 54 1013.8
20260504045727 49 195 2.0 4.0 0.00 0.00 0.00 54 1013.8
20260504045623 49 192 2.0 3.0 0.00 0.00 0.00 55 1013.7
20260504045518 49 203 2.0 3.0 0.00 0.00 0.00 54 1014.0
20260504045450 49 207 2.0 3.0 0.00 0.00 0.00 55 1013.9
20260504045326 49 175 2.0 2.0 0.00 0.00 0.00 55 1013.9
20260504045301 48 201 2.0 2.0 0.00 0.00 0.00 55 1013.9
20260504045117 48 190 2.0 3.0 0.00 0.00 0.00 55 1014.0
20260504045028 48 190 1.0 2.0 0.00 0.00 0.00 55 1013.9
20260504044924 48 184 2.0 3.0 0.00 0.00 0.00 56 1013.9
20260504044819 48 194 2.0 3.0 0.00 0.00 0.00 55 1013.8
20260504044715 48 203 2.0 3.0 0.00 0.00 0.00 56 1013.7
20260504044627 48 132 1.0 2.0 0.00 0.00 0.00 56 1013.9
20260504044522 48 191 1.0 2.0 0.00 0.00 0.00 56 1013.9
20260504044438 48 193 2.0 3.0 0.00 0.00 0.00 56 1013.9
20260504044329 48 210 1.0 1.0 0.00 0.00 0.00 56 1013.7
20260504044225 48 187 1.0 2.0 0.00 0.00 0.00 57 1013.9
20260504044120 48 154 1.0 2.0 0.00 0.00 0.00 57 1013.8
20260504044016 48 195 1.0 2.0 0.00 0.00 0.00 56 1013.9
20260504043928 48 0.0 1.0 0.00 0.00 0.00 56 1013.7
20260504043824 48 0.0 1.0 0.00 0.00 0.00 56 1013.9
20260504043719 48 183 0.0 2.0 0.00 0.00 0.00 56 1013.9
20260504043631 48 201 1.0 1.0 0.00 0.00 0.00 56 1013.9
20260504043526 48 187 1.0 3.0 0.00 0.00 0.00 56 1013.8
20260504043422 48 202 1.0 2.0 0.00 0.00 0.00 56 1013.9
20260504043318 48 175 0.0 1.0 0.00 0.00 0.00 56 1013.9
20260504043229 48 183 1.0 1.0 0.00 0.00 0.00 56 1014.0
20260504043125 48 195 1.0 2.0 0.00 0.00 0.00 56 1013.9
20260504043021 48 156 0.0 1.0 0.00 0.00 0.00 56 1014.0
20260504042916 48 183 0.0 2.0 0.00 0.00 0.00 56 1013.8
20260504042828 48 173 1.0 2.0 0.00 0.00 0.00 56 1013.7
20260504042724 48 185 1.0 2.0 0.00 0.00 0.00 56 1013.7
20260504042619 48 181 2.0 2.0 0.00 0.00 0.00 56 1013.8
20260504042531 48 190 1.0 3.0 0.00 0.00 0.00 56 1013.8
20260504042446 48 192 2.0 3.0 0.00 0.00 0.00 56 1013.7
20260504042322 48 184 2.0 3.0 0.00 0.00 0.00 56 1013.7
20260504042217 48 185 2.0 2.0 0.00 0.00 0.00 56 1013.8
20260504042129 48 182 2.0 2.0 0.00 0.00 0.00 56 1013.8
20260504042025 48 184 1.0 2.0 0.00 0.00 0.00 56 1013.8
20260504041920 48 179 1.0 2.0 0.00 0.00 0.00 56 1013.7
20260504041836 48 181 2.0 2.0 0.00 0.00 0.00 56 1013.5
20260504041728 48 179 2.0 2.0 0.00 0.00 0.00 56 1013.4
20260504041643 48 184 1.0 2.0 0.00 0.00 0.00 56 1013.8
20260504041539 48 167 1.0 2.0 0.00 0.00 0.00 56 1013.6
20260504041451 49 174 2.0 2.0 0.00 0.00 0.00 56 1013.8
20260504041346 49 196 2.0 2.0 0.00 0.00 0.00 56 1013.7
20260504041222 49 186 1.0 2.0 0.00 0.00 0.00 55 1013.5
20260504041118 49 176 2.0 3.0 0.00 0.00 0.00 56 1013.6
20260504041029 49 183 2.0 3.0 0.00 0.00 0.00 55 1013.6
20260504040925 49 181 1.0 2.0 0.00 0.00 0.00 56 1013.6
20260504040840 49 163 2.0 3.0 0.00 0.00 0.00 55 1013.5
20260504040716 49 186 2.0 2.0 0.00 0.00 0.00 55 1013.5
20260504040648 49 179 2.0 2.0 0.00 0.00 0.00 54 1013.7
20260504040523 49 193 1.0 2.0 0.00 0.00 0.00 55 1013.7
20260504040419 49 191 2.0 3.0 0.00 0.00 0.00 54 1013.6
20260504040330 49 200 2.0 3.0 0.00 0.00 0.00 54 1013.6
20260504040226 49 182 1.0 2.0 0.00 0.00 0.00 55 1013.6
20260504040122 49 184 2.0 2.0 0.00 0.00 0.00 55 1013.5
20260504040018 49 183 1.0 2.0 0.00 0.00 0.00 55 1013.4
20260504035949 49 181 2.0 2.0 0.00 0.00 0.00 55 1013.6
20260504035825 49 196 2.0 3.0 0.00 0.00 0.00 55 1013.7
20260504035720 49 189 2.0 2.0 0.00 0.00 0.00 55 1013.6
20260504035616 49 190 1.0 2.0 0.00 0.00 0.00 55 1013.6
20260504035528 49 177 1.0 2.0 0.00 0.00 0.00 55 1013.5
20260504035443 49 191 1.0 3.0 0.00 0.00 0.00 55 1013.6
20260504035319 49 174 2.0 3.0 0.00 0.00 0.00 55 1013.6
20260504035230 48 185 1.0 2.0 0.00 0.00 0.00 55 1013.6
20260504035146 48 182 1.0 2.0 0.00 0.00 0.00 55 1013.5
20260504035021 48 174 1.0 3.0 0.00 0.00 0.00 55 1013.7
20260504034917 48 191 2.0 2.0 0.00 0.00 0.00 56 1013.7
20260504034829 48 186 1.0 2.0 0.00 0.00 0.00 56 1013.6
20260504034724 48 171 1.0 2.0 0.00 0.00 0.00 56 1013.6
20260504034640 48 162 1.0 2.0 0.00 0.00 0.00 57 1013.5
20260504034516 48 179 1.0 2.0 0.00 0.00 0.00 56 1013.6
20260504034427 48 185 1.0 2.0 0.00 0.00 0.00 55 1013.6
20260504034322 48 190 2.0 3.0 0.00 0.00 0.00 56 1013.5
20260504034218 48 191 1.0 2.0 0.00 0.00 0.00 59 1013.6
20260504034130 48 172 1.0 3.0 0.00 0.00 0.00 58 1013.6
20260504034026 48 185 2.0 3.0 0.00 0.00 0.00 57 1013.5
20260504033921 48 181 1.0 2.0 0.00 0.00 0.00 58 1013.6
20260504033817 48 184 1.0 2.0 0.00 0.00 0.00 60 1013.5
20260504033729 48 161 1.0 2.0 0.00 0.00 0.00 62 1013.4
20260504033644 48 140 1.0 2.0 0.00 0.00 0.00 62 1013.4
20260504033520 48 112 1.0 2.0 0.00 0.00 0.00 59 1013.4
20260504033435 48 199 1.0 2.0 0.00 0.00 0.00 57 1013.4
20260504033327 48 166 0.0 2.0 0.00 0.00 0.00 57 1013.6
20260504033222 48 183 1.0 2.0 0.00 0.00 0.00 56 1013.5
20260504033118 48 192 1.0 2.0 0.00 0.00 0.00 56 1013.5
20260504033030 48 185 1.0 2.0 0.00 0.00 0.00 57 1013.4
20260504032925 49 166 1.0 2.0 0.00 0.00 0.00 59 1013.4
20260504032821 49 202 1.0 2.0 0.00 0.00 0.00 57 1013.4
20260504032716 49 172 2.0 2.0 0.00 0.00 0.00 56 1013.4
20260504032628 49 185 2.0 2.0 0.00 0.00 0.00 55 1013.5
20260504032544 49 187 2.0 2.0 0.00 0.00 0.00 55 1013.5
20260504032419 48 191 2.0 2.0 0.00 0.00 0.00 56 1013.4
20260504032411 48 179 1.0 2.0 0.00 0.00 0.00 55 1013.4
20260504032226 48 192 1.0 2.0 0.00 0.00 0.00 55 1013.4
20260504032122 48 190 2.0 4.0 0.00 0.00 0.00 56 1013.6
20260504032038 48 193 2.0 3.0 0.00 0.00 0.00 59 1013.5
20260504031929 48 155 1.0 2.0 0.00 0.00 0.00 62 1013.5
20260504031825 47 154 1.0 2.0 0.00 0.00 0.00 59 1013.2
20260504031720 47 191 1.0 2.0 0.00 0.00 0.00 58 1013.4
20260504031616 47 201 1.0 2.0 0.00 0.00 0.00 60 1013.4
20260504031528 47 186 1.0 2.0 0.00 0.00 0.00 62 1013.2
20260504031423 47 177 1.0 2.0 0.00 0.00 0.00 64 1013.3
20260504031338 47 151 1.0 2.0 0.00 0.00 0.00 65 1013.1
20260504031230 47 113 1.0 2.0 0.00 0.00 0.00 65 1013.4
20260504031126 47 128 1.0 2.0 0.00 0.00 0.00 65 1013.3
20260504031021 47 122 2.0 2.0 0.00 0.00 0.00 64 1013.3
20260504030917 47 116 2.0 2.0 0.00 0.00 0.00 64 1013.1
20260504030829 47 123 1.0 2.0 0.00 0.00 0.00 64 1013.3
20260504030725 47 136 1.0 2.0 0.00 0.00 0.00 64 1013.2
20260504030640 47 141 0.0 1.0 0.00 0.00 0.00 63 1013.6
20260504030516 47 103 1.0 2.0 0.00 0.00 0.00 64 1013.4
20260504030448 47 126 2.0 2.0 0.00 0.00 0.00 63 1013.3
20260504030323 48 131 1.0 2.0 0.00 0.00 0.00 63 1013.3
20260504030219 48 158 1.0 2.0 0.00 0.00 0.00 63 1013.3
20260504030131 48 109 1.0 2.0 0.00 0.00 0.00 63 1013.3
20260504030026 48 137 0.0 2.0 0.00 0.00 0.00 63 1013.5
20260504025921 48 119 1.0 2.0 0.00 0.00 0.00 62 1013.2
20260504025817 48 165 1.0 2.0 0.00 0.00 0.00 61 1013.4
20260504025729 48 0.0 1.0 0.00 0.00 0.00 62 1013.5
20260504025625 48 150 0.0 2.0 0.00 0.00 0.00 63 1013.3
20260504025520 48 71 0.0 2.0 0.00 0.00 0.00 62 1013.2
20260504025416 48 124 1.0 2.0 0.00 0.00 0.00 62 1013.4
20260504025328 48 133 1.0 2.0 0.00 0.00 0.00 62 1013.2
20260504025223 48 141 1.0 2.0 0.00 0.00 0.00 61 1013.1
20260504025119 49 133 0.0 2.0 0.00 0.00 0.00 62 1013.2
20260504025051 49 135 1.0 2.0 0.00 0.00 0.00 62 1013.3
20260504024926 49 132 1.0 2.0 0.00 0.00 0.00 61 1013.2
20260504024822 49 115 0.0 1.0 0.00 0.00 0.00 60 1013.4
20260504024717 49 0.0 1.0 0.00 0.00 0.00 60 1013.3
20260504024629 49 110 0.0 2.0 0.00 0.00 0.00 60 1013.4
20260504024525 50 131 1.0 2.0 0.00 0.00 0.00 59 1013.2
20260504024420 50 129 1.0 2.0 0.00 0.00 0.00 58 1013.4
20260504024316 50 142 0.0 2.0 0.00 0.00 0.00 57 1013.4
20260504024229 50 145 0.0 2.0 0.00 0.00 0.00 54 1013.3
20260504024143 50 177 1.0 2.0 0.00 0.00 0.00 53 1013.2
20260504024019 50 177 1.0 2.0 0.00 0.00 0.00 53 1013.4
20260504023930 50 176 2.0 2.0 0.00 0.00 0.00 54 1013.4
20260504023826 50 166 2.0 2.0 0.00 0.00 0.00 54 1013.3
20260504023722 50 174 1.0 2.0 0.00 0.00 0.00 52 1013.5
20260504023617 50 192 1.0 2.0 0.00 0.00 0.00 51 1013.2
20260504023529 49 191 1.0 2.0 0.00 0.00 0.00 51 1013.3
20260504023425 49 185 2.0 3.0 0.00 0.00 0.00 53 1013.4
20260504023320 49 192 1.0 2.0 0.00 0.00 0.00 54 1013.5
20260504023216 49 182 0.0 2.0 0.00 0.00 0.00 54 1013.3
20260504023128 49 0.0 2.0 0.00 0.00 0.00 54 1013.2
20260504023023 49 0.0 2.0 0.00 0.00 0.00 55 1013.4
20260504022919 49 132 1.0 2.0 0.00 0.00 0.00 54 1013.3
20260504022831 48 192 0.0 1.0 0.00 0.00 0.00 53 1013.4
20260504022726 48 239 0.0 1.0 0.00 0.00 0.00 55 1013.3
20260504022622 48 0.0 1.0 0.00 0.00 0.00 58 1013.2
20260504022517 48 0.0 1.0 0.00 0.00 0.00 59 1013.2
20260504022429 48 0.0 1.0 0.00 0.00 0.00 59 1013.1
20260504022345 48 121 0.0 1.0 0.00 0.00 0.00 59 1013.1
20260504022220 48 123 0.0 2.0 0.00 0.00 0.00 59 1013.4
20260504022116 48 139 0.0 1.0 0.00 0.00 0.00 58 1013.4
20260504022027 48 122 0.0 1.0 0.00 0.00 0.00 58 1013.4
20260504021943 48 0.0 0.0 0.00 0.00 0.00 58 1013.4
20260504021819 48 0.0 0.0 0.00 0.00 0.00 57 1013.2
20260504021731 48 148 1.0 1.0 0.00 0.00 0.00 55 1013.3
20260504021646 48 186 0.0 1.0 0.00 0.00 0.00 54 1013.1
20260504021522 48 0.0 2.0 0.00 0.00 0.00 54 1013.3
20260504021417 48 173 1.0 2.0 0.00 0.00 0.00 54 1013.4
20260504021329 48 0.0 2.0 0.00 0.00 0.00 56 1013.3
20260504021225 48 0.0 1.0 0.00 0.00 0.00 57 1013.5
20260504021120 48 0.0 1.0 0.00 0.00 0.00 58 1013.4
20260504021016 48 0.0 1.0 0.00 0.00 0.00 57 1013.5
20260504020948 48 134 0.0 1.0 0.00 0.00 0.00 57 1013.4
20260504020823 48 0.0 0.0 0.00 0.00 0.00 57 1013.4
20260504020719 48 0.0 1.0 0.00 0.00 0.00 58 1013.4
20260504020630 48 0.0 2.0 0.00 0.00 0.00 58 1013.4
20260504020526 48 0.0 2.0 0.00 0.00 0.00 58 1013.4
20260504020422 48 89 0.0 2.0 0.00 0.00 0.00 57 1013.3
20260504020317 48 57 0.0 1.0 0.00 0.00 0.00 56 1013.2
20260504020249 48 182 0.0 2.0 0.00 0.00 0.00 55 1013.4
20260504020125 48 0.0 1.0 0.00 0.00 0.00 56 1013.3
20260504020020 48 0.0 1.0 0.00 0.00 0.00 57 1013.5
20260504015916 48 0.0 1.0 0.00 0.00 0.00 57 1013.5
20260504015828 48 0.0 1.0 0.00 0.00 0.00 57 1013.4
20260504015723 48 0.0 1.0 0.00 0.00 0.00 59 1013.3
20260504015639 48 0.0 0.0 0.00 0.00 0.00 59 1013.2
20260504015530 48 0.0 1.0 0.00 0.00 0.00 59 1013.4
20260504015426 48 0.0 1.0 0.00 0.00 0.00 59 1013.3
20260504015322 48 125 0.0 2.0 0.00 0.00 0.00 59 1013.3
20260504015237 48 140 1.0 2.0 0.00 0.00 0.00 58 1013.5
20260504015129 48 84 1.0 2.0 0.00 0.00 0.00 58 1013.4
20260504015025 48 144 0.0 2.0 0.00 0.00 0.00 57 1013.4
20260504014920 48 0.0 1.0 0.00 0.00 0.00 58 1013.2
20260504014816 48 0.0 0.0 0.00 0.00 0.00 58 1013.4
20260504014728 48 0.0 0.0 0.00 0.00 0.00 58 1013.3
20260504014623 48 0.0 0.0 0.00 0.00 0.00 57 1013.4
20260504014519 48 0.0 1.0 0.00 0.00 0.00 57 1013.2
20260504014430 48 108 0.0 1.0 0.00 0.00 0.00 56 1013.3
20260504014326 48 0.0 0.0 0.00 0.00 0.00 56 1013.2
20260504014221 48 0.0 1.0 0.00 0.00 0.00 55 1013.1
20260504014117 48 0.0 1.0 0.00 0.00 0.00 55 1013.3
20260504014029 49 171 0.0 1.0 0.00 0.00 0.00 55 1013.3
20260504013924 49 165 1.0 2.0 0.00 0.00 0.00 54 1013.2
20260504013820 49 0.0 0.0 0.00 0.00 0.00 54 1013.5
20260504013715 49 0.0 1.0 0.00 0.00 0.00 54 1013.3
20260504013647 49 0.0 1.0 0.00 0.00 0.00 55 1013.2
20260504013523 49 144 0.0 1.0 0.00 0.00 0.00 55 1013.0
20260504013418 49 0.0 1.0 0.00 0.00 0.00 55 1013.0
20260504013350 49 0.0 1.0 0.00 0.00 0.00 56 1013.2
20260504013246 49 0.0 1.0 0.00 0.00 0.00 56 1013.0
20260504013121 49 97 0.0 1.0 0.00 0.00 0.00 56 1012.9
20260504013017 49 0.0 2.0 0.00 0.00 0.00 56 1013.0
20260504012928 49 0.0 0.0 0.00 0.00 0.00 55 1013.0
20260504012824 49 0.0 1.0 0.00 0.00 0.00 55 1013.0
20260504012740 49 0.0 1.0 0.00 0.00 0.00 55 1013.0
20260504012615 50 93 1.0 1.0 0.00 0.00 0.00 55 1013.0
20260504012527 50 67 1.0 2.0 0.00 0.00 0.00 54 1013.0
20260504012423 50 125 1.0 1.0 0.00 0.00 0.00 54 1013.0
20260504012318 50 0.0 0.0 0.00 0.00 0.00 53 1012.9
20260504012250 50 0.0 0.0 0.00 0.00 0.00 53 1013.0
20260504012125 50 0.0 0.0 0.00 0.00 0.00 52 1012.9
20260504012021 50 0.0 0.0 0.00 0.00 0.00 52 1013.2
20260504011917 50 0.0 0.0 0.00 0.00 0.00 53 1013.2
20260504011828 50 0.0 1.0 0.00 0.00 0.00 54 1013.0
20260504011724 50 135 0.0 1.0 0.00 0.00 0.00 54 1012.7
20260504011619 50 141 0.0 2.0 0.00 0.00 0.00 54 1012.8
20260504011515 50 145 0.0 1.0 0.00 0.00 0.00 53 1012.9
20260504011427 50 0.0 1.0 0.00 0.00 0.00 54 1012.8
20260504011342 50 15 1.0 2.0 0.00 0.00 0.00 55 1012.8
20260504011258 50 33 1.0 1.0 0.00 0.00 0.00 55 1013.0
20260504011129 50 0.0 1.0 0.00 0.00 0.00 55 1012.9
20260504011045 50 159 1.0 2.0 0.00 0.00 0.00 55 1012.9
20260504010921 50 164 1.0 2.0 0.00 0.00 0.00 56 1012.8
20260504010816 50 0.0 1.0 0.00 0.00 0.00 54 1013.1
20260504010728 50 148 0.0 1.0 0.00 0.00 0.00 54 1012.7
20260504010624 50 171 1.0 2.0 0.00 0.00 0.00 53 1012.8
20260504010519 50 145 0.0 1.0 0.00 0.00 0.00 52 1012.7
20260504010431 50 0.0 1.0 0.00 0.00 0.00 52 1012.7
20260504010326 50 0.0 1.0 0.00 0.00 0.00 51 1012.9
20260504010222 51 157 1.0 2.0 0.00 0.00 0.00 51 1012.7
20260504010117 51 156 0.0 1.0 0.00 0.00 0.00 51 1012.7
20260504010029 51 0.0 1.0 0.00 0.00 0.00 51 1012.6
20260504005925 51 65 0.0 2.0 0.00 0.00 0.00 51 1012.6
20260504005820 51 150 1.0 2.0 0.00 0.00 0.00 50 1012.8
20260504005716 51 143 0.0 2.0 0.00 0.00 0.00 50 1012.6
20260504005627 51 138 0.0 2.0 0.00 0.00 0.00 50 1012.7
20260504005523 51 64 0.0 1.0 0.00 0.00 0.00 50 1012.7
20260504005419 51 0.0 1.0 0.00 0.00 0.00 50 1012.6
20260504005330 52 138 0.0 2.0 0.00 0.00 0.00 50 1012.7
20260504005246 52 141 1.0 2.0 0.00 0.00 0.00 49 1012.5
20260504005122 52 172 0.0 2.0 0.00 0.00 0.00 49 1012.7
20260504005017 52 0.0 1.0 0.00 0.00 0.00 49 1012.5
20260504004929 52 127 1.0 2.0 0.00 0.00 0.00 49 1012.7
20260504004844 52 77 1.0 2.0 0.00 0.00 0.00 49 1012.5
20260504004720 52 120 2.0 2.0 0.00 0.00 0.00 49 1012.5
20260504004615 52 124 1.0 2.0 0.00 0.00 0.00 49 1012.7
20260504004527 52 131 1.0 2.0 0.00 0.00 0.00 49 1012.5
20260504004423 52 112 2.0 2.0 0.00 0.00 0.00 49 1012.6
20260504004338 53 129 1.0 2.0 0.00 0.00 0.00 49 1012.6
20260504004230 53 125 1.0 2.0 0.00 0.00 0.00 48 1012.5
20260504004126 53 130 1.0 2.0 0.00 0.00 0.00 48 1012.6
20260504004041 53 124 1.0 2.0 0.00 0.00 0.00 48 1012.5
20260504003917 53 113 1.0 1.0 0.00 0.00 0.00 47 1012.5
20260504003849 53 144 1.0 2.0 0.00 0.00 0.00 48 1012.5
20260504003724 53 164 1.0 2.0 0.00 0.00 0.00 47 1012.3
20260504003620 53 0.0 1.0 0.00 0.00 0.00 45 1012.6
20260504003515 53 146 1.0 2.0 0.00 0.00 0.00 45 1012.5
20260504003427 54 150 1.0 2.0 0.00 0.00 0.00 45 1012.4
20260504003343 54 133 1.0 2.0 0.00 0.00 0.00 45 1012.5
20260504003218 54 0.0 1.0 0.00 0.00 0.00 44 1012.4
20260504003210 54 151 1.0 2.0 0.00 0.00 0.00 44 1012.3
20260504003025 54 159 1.0 2.0 0.00 0.00 0.00 44 1012.4
20260504002921 54 123 1.0 2.0 0.00 0.00 0.00 43 1012.3
20260504002837 55 120 1.0 2.0 0.00 0.00 0.00 42 1012.3
20260504002728 55 91 0.0 1.0 0.00 0.00 0.00 38 1012.1
20260504002624 55 172 1.0 2.0 0.00 0.00 0.00 38 1012.3
20260504002519 55 164 1.0 1.0 0.00 0.00 0.00 38 1012.3
20260504002415 55 142 0.0 2.0 0.00 0.00 0.00 38 1012.2
20260504002327 55 191 1.0 2.0 0.00 0.00 0.00 38 1012.3
20260504002222 55 141 1.0 2.0 0.00 0.00 0.00 38 1012.2
20260504002118 55 172 0.0 1.0 0.00 0.00 0.00 38 1012.2
20260504002030 55 187 1.0 2.0 0.00 0.00 0.00 38 1012.1
20260504001945 55 0.0 1.0 0.00 0.00 0.00 38 1011.9
20260504001820 55 0.0 1.0 0.00 0.00 0.00 38 1012.1
20260504001716 55 199 1.0 2.0 0.00 0.00 0.00 38 1012.2
20260504001627 55 172 0.0 1.0 0.00 0.00 0.00 38 1012.0
20260504001522 55 196 2.0 3.0 0.00 0.00 0.00 38 1012.2
20260504001418 55 169 1.0 2.0 0.00 0.00 0.00 39 1012.2
20260504001349 55 196 1.0 2.0 0.00 0.00 0.00 38 1012.1
20260504001225 55 185 1.0 2.0 0.00 0.00 0.00 38 1012.0
20260504001121 55 0.0 1.0 0.00 0.00 0.00 39 1012.0
20260504001036 55 141 0.0 2.0 0.00 0.00 0.00 39 1011.9
20260504000927 55 75 0.0 2.0 0.00 0.00 0.00 40 1011.9
20260504000823 55 0.0 2.0 0.00 0.00 0.00 41 1012.0
20260504000718 55 130 2.0 2.0 0.00 0.00 0.00 40 1011.9
20260504000650 55 162 1.0 2.0 0.00 0.00 0.00 39 1012.0
20260504000526 55 152 2.0 2.0 0.00 0.00 0.00 41 1011.9
20260504000423 55 159 1.0 2.0 0.00 0.00 0.00 41 1011.8
20260504000317 55 144 1.0 2.0 0.00 0.00 0.00 41 1011.9
20260504000228 56 160 0.0 2.0 0.00 0.00 0.00 40 1012.0
20260504000124 56 138 1.0 2.0 0.00 0.00 0.00 40 1011.8
20260504000019 56 50 0.0 2.0 0.00 0.00 0.00 39 1011.9
20260503235915 56 108 1.0 2.0 0.00 0.00 0.00 39 1011.9
20260503235846 56 119 1.0 2.0 0.00 0.00 0.00 40 1011.7
20260503235722 56 133 1.0 2.0 0.00 0.00 0.00 40 1011.9
20260503235618 56 138 1.0 2.0 0.00 0.00 0.00 39 1011.9
20260503235610 56 139 1.0 3.0 0.00 0.00 0.00 38 1011.8
20260503235425 57 155 0.0 1.0 0.00 0.00 0.00 36 1011.8
20260503235321 57 0.0 0.0 0.00 0.00 0.00 36 1011.8
20260503235216 57 173 0.0 2.0 0.00 0.00 0.00 35 1011.9
20260503235128 57 0.0 1.0 0.00 0.00 0.00 35 1011.8
20260503235024 57 139 1.0 2.0 0.00 0.00 0.00 37 1011.7
20260503234919 57 141 1.0 2.0 0.00 0.00 0.00 36 1011.6
20260503234851 58 160 1.0 2.0 0.00 0.00 0.00 34 1011.6
20260503234726 58 214 2.0 3.0 0.00 0.00 0.00 33 1011.6
20260503234622 58 207 2.0 2.0 0.00 0.00 0.00 34 1011.8
20260503234538 58 205 1.0 3.0 0.00 0.00 0.00 34 1011.6
20260503234429 58 187 2.0 3.0 0.00 0.00 0.00 34 1011.8
20260503234405 58 179 2.0 3.0 0.00 0.00 0.00 34 1011.7
20260503234241 58 189 3.0 4.0 0.00 0.00 0.00 33 1011.8
20260503234116 58 199 0.0 3.0 0.00 0.00 0.00 33 1011.7
20260503234028 58 202 2.0 3.0 0.00 0.00 0.00 33 1011.7
20260503233923 58 202 2.0 3.0 0.00 0.00 0.00 34 1011.6
20260503233819 58 0.0 2.0 0.00 0.00 0.00 33 1011.7
20260503233731 58 171 1.0 2.0 0.00 0.00 0.00 34 1011.8
20260503233726 58 188 1.0 2.0 0.00 0.00 0.00 33 1011.6
20260503233522 58 137 1.0 2.0 0.00 0.00 0.00 33 1011.6
20260503233417 58 172 1.0 2.0 0.00 0.00 0.00 33 1011.5
20260503233329 58 182 1.0 2.0 0.00 0.00 0.00 33 1011.5
20260503233224 58 191 3.0 4.0 0.00 0.00 0.00 32 1011.7
20260503233140 58 194 2.0 3.0 0.00 0.00 0.00 32 1011.6
20260503233016 58 185 1.0 2.0 0.00 0.00 0.00 33 1011.5
20260503232927 58 199 1.0 3.0 0.00 0.00 0.00 33 1011.5
20260503232823 58 190 2.0 5.0 0.00 0.00 0.00 32 1011.3
20260503232739 58 179 3.0 4.0 0.00 0.00 0.00 32 1011.4
20260503232630 58 172 1.0 2.0 0.00 0.00 0.00 32 1011.5
20260503232526 58 155 2.0 3.0 0.00 0.00 0.00 33 1011.6
20260503232421 58 62 1.0 2.0 0.00 0.00 0.00 33 1011.4
20260503232357 58 212 1.0 4.0 0.00 0.00 0.00 33 1011.6
20260503232229 58 198 2.0 3.0 0.00 0.00 0.00 33 1011.6
20260503232124 58 154 1.0 2.0 0.00 0.00 0.00 32 1011.7
20260503232020 58 204 1.0 3.0 0.00 0.00 0.00 33 1011.6
20260503231915 58 179 2.0 3.0 0.00 0.00 0.00 32 1011.7
20260503231847 58 207 3.0 5.0 0.00 0.00 0.00 32 1011.6
20260503231723 58 172 1.0 2.0 0.00 0.00 0.00 33 1011.5
20260503231618 58 179 1.0 2.0 0.00 0.00 0.00 32 1011.4
20260503231550 58 172 2.0 3.0 0.00 0.00 0.00 32 1011.5
20260503231425 58 184 2.0 2.0 0.00 0.00 0.00 33 1011.6
20260503231321 58 212 1.0 4.0 0.00 0.00 0.00 33 1011.4
20260503231216 58 235 2.0 4.0 0.00 0.00 0.00 33 1011.4
20260503231128 59 131 2.0 3.0 0.00 0.00 0.00 32 1011.6
20260503231023 59 82 1.0 2.0 0.00 0.00 0.00 33 1011.6
20260503230919 59 183 1.0 2.0 0.00 0.00 0.00 33 1011.4
20260503230831 59 182 2.0 4.0 0.00 0.00 0.00 32 1011.5
20260503230726 59 196 4.0 6.0 0.00 0.00 0.00 31 1011.5
20260503230622 59 194 3.0 4.0 0.00 0.00 0.00 31 1011.3
20260503230518 59 205 3.0 3.0 0.00 0.00 0.00 32 1011.4
20260503230429 59 184 3.0 4.0 0.00 0.00 0.00 31 1011.4
20260503230325 59 219 2.0 3.0 0.00 0.00 0.00 31 1011.3
20260503230221 59 200 2.0 4.0 0.00 0.00 0.00 31 1011.6
20260503230116 59 191 3.0 3.0 0.00 0.00 0.00 31 1011.5
20260503230028 59 212 3.0 4.0 0.00 0.00 0.00 31 1011.5
20260503225923 59 193 4.0 6.0 0.00 0.00 0.00 31 1011.4
20260503225819 59 214 4.0 5.0 0.00 0.00 0.00 31 1011.4
20260503225731 59 204 3.0 6.0 0.00 0.00 0.00 32 1011.2
20260503225626 59 220 2.0 3.0 0.00 0.00 0.00 32 1011.4
20260503225522 59 203 2.0 5.0 0.00 0.00 0.00 31 1011.6
20260503225417 59 201 5.0 7.0 0.00 0.00 0.00 30 1011.3
20260503225329 59 214 4.0 6.0 0.00 0.00 0.00 31 1011.5
20260503225225 59 203 5.0 10.0 0.00 0.00 0.00 31 1011.5
20260503225120 59 238 2.0 3.0 0.00 0.00 0.00 31 1011.3
20260503225016 60 193 3.0 6.0 0.00 0.00 0.00 31 1011.4
20260503224928 60 219 4.0 7.0 0.00 0.00 0.00 30 1011.3
20260503224843 60 190 4.0 8.0 0.00 0.00 0.00 30 1011.3
20260503224719 60 212 5.0 6.0 0.00 0.00 0.00 29 1011.3
20260503224630 60 201 3.0 6.0 0.00 0.00 0.00 29 1011.3
20260503224526 60 194 3.0 4.0 0.00 0.00 0.00 30 1011.2
20260503224441 60 10 1.0 3.0 0.00 0.00 0.00 30 1011.4
20260503224317 60 192 2.0 4.0 0.00 0.00 0.00 30 1011.3
20260503224229 60 128 1.0 2.0 0.00 0.00 0.00 30 1011.0
20260503224124 60 263 1.0 2.0 0.00 0.00 0.00 30 1011.2
20260503224020 60 193 1.0 3.0 0.00 0.00 0.00 29 1011.2
20260503223915 60 67 1.0 2.0 0.00 0.00 0.00 29 1011.3
20260503223847 60 8 3.0 6.0 0.00 0.00 0.00 28 1011.2
20260503223803 60 327 2.0 6.0 0.00 0.00 0.00 29 1011.2
20260503223618 60 221 2.0 4.0 0.00 0.00 0.00 29 1011.2
20260503223530 60 182 2.0 4.0 0.00 0.00 0.00 30 1011.1
20260503223426 60 180 2.0 3.0 0.00 0.00 0.00 29 1011.4
20260503223321 60 164 2.0 4.0 0.00 0.00 0.00 30 1011.3
20260503223217 60 224 3.0 4.0 0.00 0.00 0.00 30 1011.2
20260503223149 60 219 2.0 2.0 0.00 0.00 0.00 29 1011.0
20260503223024 60 28 2.0 3.0 0.00 0.00 0.00 30 1011.1
20260503222920 60 203 3.0 5.0 0.00 0.00 0.00 29 1011.3
20260503222815 60 183 3.0 5.0 0.00 0.00 0.00 30 1011.2
20260503222727 60 189 3.0 4.0 0.00 0.00 0.00 30 1011.2
20260503222622 60 164 2.0 6.0 0.00 0.00 0.00 30 1011.3
20260503222518 60 359 5.0 6.0 0.00 0.00 0.00 29 1011.0
20260503222430 60 340 2.0 2.0 0.00 0.00 0.00 29 1011.2
20260503222325 60 166 2.0 5.0 0.00 0.00 0.00 29 1011.2
20260503222221 60 324 4.0 6.0 0.00 0.00 0.00 28 1011.3
20260503222117 60 305 2.0 5.0 0.00 0.00 0.00 29 1011.2
20260503222048 60 350 4.0 5.0 0.00 0.00 0.00 29 1011.1
20260503221944 60 43 2.0 3.0 0.00 0.00 0.00 29 1011.1
20260503221819 60 311 1.0 5.0 0.00 0.00 0.00 28 1011.1
20260503221715 60 218 2.0 4.0 0.00 0.00 0.00 29 1011.2
20260503221627 60 323 4.0 6.0 0.00 0.00 0.00 28 1011.2
20260503221542 60 345 2.0 5.0 0.00 0.00 0.00 29 1011.0
20260503221518 60 351 2.0 4.0 0.00 0.00 0.00 29 1011.1
20260503221330 60 201 1.0 3.0 0.00 0.00 0.00 29 1011.1
20260503221225 60 14 1.0 3.0 0.00 0.00 0.00 28 1011.2
20260503221121 60 342 1.0 2.0 0.00 0.00 0.00 28 1010.9
20260503221016 60 52 3.0 4.0 0.00 0.00 0.00 27 1011.1
20260503220928 60 20 3.0 6.0 0.00 0.00 0.00 28 1011.1
20260503220824 60 1 2.0 4.0 0.00 0.00 0.00 29 1011.1
20260503220719 60 341 3.0 5.0 0.00 0.00 0.00 29 1011.1
20260503220651 60 9 2.0 4.0 0.00 0.00 0.00 29 1011.1
20260503220527 60 40 2.0 4.0 0.00 0.00 0.00 29 1011.1
20260503220422 60 326 4.0 7.0 0.00 0.00 0.00 28 1011.2
20260503220318 60 12 4.0 8.0 0.00 0.00 0.00 28 1011.1
20260503220229 60 348 5.0 8.0 0.00 0.00 0.00 28 1011.0
20260503220125 60 283 4.0 6.0 0.00 0.00 0.00 28 1011.3
20260503220020 60 303 3.0 5.0 0.00 0.00 0.00 28 1011.1
20260503215916 60 249 4.0 7.0 0.00 0.00 0.00 29 1011.2
20260503215828 60 117 1.0 2.0 0.00 0.00 0.00 29 1011.4
20260503215723 60 179 2.0 4.0 0.00 0.00 0.00 28 1011.2
20260503215619 60 264 1.0 4.0 0.00 0.00 0.00 29 1011.3
20260503215530 60 336 3.0 4.0 0.00 0.00 0.00 29 1011.4
20260503215426 60 65 2.0 3.0 0.00 0.00 0.00 29 1011.4
20260503215342 60 299 3.0 6.0 0.00 0.00 0.00 29 1011.3
20260503215217 60 333 3.0 7.0 0.00 0.00 0.00 27 1011.3
20260503215129 60 337 3.0 4.0 0.00 0.00 0.00 28 1011.2
20260503215104 60 321 5.0 9.0 0.00 0.00 0.00 28 1011.3
20260503214920 60 21 6.0 10.0 0.00 0.00 0.00 28 1011.6
20260503214816 60 8 4.0 8.0 0.00 0.00 0.00 28 1011.4
20260503214727 60 328 7.0 13.0 0.00 0.00 0.00 28 1011.1
20260503214623 60 333 6.0 10.0 0.00 0.00 0.00 28 1011.2
20260503214519 61 327 4.0 5.0 0.00 0.00 0.00 28 1011.2
20260503214430 61 351 4.0 8.0 0.00 0.00 0.00 28 1011.1
20260503214326 61 5 3.0 4.0 0.00 0.00 0.00 29 1011.2
20260503214221 60 124 2.0 3.0 0.00 0.00 0.00 29 1011.1
20260503214117 60 34 2.0 3.0 0.00 0.00 0.00 29 1011.1
20260503214029 60 330 3.0 5.0 0.00 0.00 0.00 29 1011.2
20260503213924 60 359 2.0 5.0 0.00 0.00 0.00 29 1011.3
20260503213840 60 88 0.0 4.0 0.00 0.00 0.00 29 1011.1
20260503213735 60 214 2.0 6.0 0.00 0.00 0.00 30 1011.2
20260503213627 60 330 3.0 5.0 0.00 0.00 0.00 30 1011.0
20260503213522 60 359 4.0 6.0 0.00 0.00 0.00 29 1011.2
20260503213418 60 297 5.0 8.0 0.00 0.00 0.00 28 1011.0
20260503213330 60 28 5.0 6.0 0.00 0.00 0.00 28 1011.4
20260503213225 60 318 3.0 6.0 0.00 0.00 0.00 28 1011.2
20260503213121 60 137 2.0 4.0 0.00 0.00 0.00 28 1011.2
20260503213036 60 281 3.0 4.0 0.00 0.00 0.00 29 1011.3
20260503212928 60 349 4.0 8.0 0.00 0.00 0.00 29 1011.1
20260503212824 60 357 3.0 9.0 0.00 0.00 0.00 28 1011.3
20260503212740 60 336 4.0 13.0 0.00 0.00 0.00 28 1011.5
20260503212615 60 337 8.0 13.0 0.00 0.00 0.00 28 1011.4
20260503212527 60 307 4.0 7.0 0.00 0.00 0.00 29 1011.0
20260503212422 60 268 3.0 5.0 0.00 0.00 0.00 29 1011.2
20260503212318 60 87 2.0 5.0 0.00 0.00 0.00 29 1011.3
20260503212229 60 318 3.0 6.0 0.00 0.00 0.00 28 1011.2
20260503212125 60 333 6.0 9.0 0.00 0.00 0.00 28 1011.4
20260503212021 60 332 3.0 5.0 0.00 0.00 0.00 28 1011.0
20260503211916 60 321 4.0 6.0 0.00 0.00 0.00 29 1011.2
20260503211828 60 319 4.0 9.0 0.00 0.00 0.00 28 1011.2
20260503211724 60 347 5.0 11.0 0.00 0.00 0.00 28 1011.2
20260503211619 60 335 4.0 5.0 0.00 0.00 0.00 29 1011.2
20260503211531 60 359 6.0 10.0 0.00 0.00 0.00 29 1011.2
20260503211447 60 316 3.0 6.0 0.00 0.00 0.00 29 1011.1
20260503211322 60 203 2.0 3.0 0.00 0.00 0.00 30 1011.1
20260503211218 60 195 3.0 7.0 0.00 0.00 0.00 29 1011.1
20260503211150 60 348 7.0 13.0 0.00 0.00 0.00 28 1011.3
20260503211025 60 37 3.0 5.0 0.00 0.00 0.00 29 1011.2
20260503210921 60 314 7.0 12.0 0.00 0.00 0.00 28 1011.1
20260503210816 60 334 4.0 8.0 0.00 0.00 0.00 28 1011.3
20260503210728 60 336 6.0 9.0 0.00 0.00 0.00 29 1011.2
20260503210623 60 343 4.0 7.0 0.00 0.00 0.00 28 1011.2
20260503210519 60 337 6.0 10.0 0.00 0.00 0.00 28 1011.2
20260503210430 60 332 5.0 10.0 0.00 0.00 0.00 29 1011.2
20260503210346 60 335 6.0 11.0 0.00 0.00 0.00 28 1011.3
20260503210221 60 257 4.0 7.0 0.00 0.00 0.00 29 1011.2
20260503210117 60 32 5.0 6.0 0.00 0.00 0.00 29 1011.3
20260503210029 60 329 5.0 7.0 0.00 0.00 0.00 28 1011.3
20260503205924 60 273 3.0 5.0 0.00 0.00 0.00 29 1011.3
20260503205820 60 324 5.0 7.0 0.00 0.00 0.00 28 1011.3
20260503205715 60 318 6.0 13.0 0.00 0.00 0.00 28 1011.2
20260503205627 60 14 4.0 9.0 0.00 0.00 0.00 28 1011.2
20260503205523 60 328 6.0 12.0 0.00 0.00 0.00 28 1011.2
20260503205518 60 321 4.0 8.0 0.00 0.00 0.00 28 1010.9
20260503205330 60 357 5.0 12.0 0.00 0.00 0.00 28 1011.2
20260503205225 60 15 5.0 9.0 0.00 0.00 0.00 29 1011.1
20260503205121 60 75 3.0 5.0 0.00 0.00 0.00 29 1011.1
20260503205016 60 332 5.0 14.0 0.00 0.00 0.00 29 1011.2
20260503204928 60 326 9.0 17.0 0.00 0.00 0.00 28 1011.1
20260503204824 60 305 4.0 13.0 0.00 0.00 0.00 29 1011.1
20260503204720 60 204 2.0 3.0 0.00 0.00 0.00 30 1010.9
20260503204615 60 358 3.0 5.0 0.00 0.00 0.00 30 1010.9
20260503204547 60 147 1.0 3.0 0.00 0.00 0.00 30 1010.8
20260503204423 60 118 2.0 4.0 0.00 0.00 0.00 30 1011.0
20260503204318 60 41 2.0 2.0 0.00 0.00 0.00 30 1011.1
20260503204230 60 227 3.0 7.0 0.00 0.00 0.00 30 1011.2
20260503204145 60 351 4.0 8.0 0.00 0.00 0.00 29 1011.0
20260503204021 60 9 5.0 7.0 0.00 0.00 0.00 29 1011.2
20260503203917 59 2 2.0 5.0 0.00 0.00 0.00 29 1011.1
20260503203828 59 355 3.0 5.0 0.00 0.00 0.00 29 1011.2
20260503203724 60 296 6.0 13.0 0.00 0.00 0.00 29 1011.3
20260503203620 60 6 4.0 6.0 0.00 0.00 0.00 29 1011.0
20260503203535 60 348 5.0 10.0 0.00 0.00 0.00 29 1011.2
20260503203427 60 330 6.0 11.0 0.00 0.00 0.00 29 1011.1
20260503203322 60 345 5.0 11.0 0.00 0.00 0.00 29 1011.2
20260503203238 60 320 5.0 12.0 0.00 0.00 0.00 29 1011.0
20260503203130 60 312 5.0 8.0 0.00 0.00 0.00 29 1011.1
20260503203025 60 316 4.0 9.0 0.00 0.00 0.00 30 1011.2
20260503202921 60 309 6.0 12.0 0.00 0.00 0.00 30 1011.4
20260503202816 60 352 4.0 7.0 0.00 0.00 0.00 30 1011.3
20260503202728 60 339 4.0 7.0 0.00 0.00 0.00 30 1011.3
20260503202624 60 342 5.0 9.0 0.00 0.00 0.00 30 1011.4
20260503202519 60 311 3.0 6.0 0.00 0.00 0.00 30 1011.3
20260503202415 60 11 1.0 3.0 0.00 0.00 0.00 30 1011.2
20260503202327 60 233 3.0 11.0 0.00 0.00 0.00 30 1011.1
20260503202242 60 330 6.0 15.0 0.00 0.00 0.00 29 1011.2
20260503202118 60 338 6.0 15.0 0.00 0.00 0.00 29 1011.2
20260503202030 60 344 2.0 6.0 0.00 0.00 0.00 30 1011.5
20260503201925 60 291 3.0 7.0 0.00 0.00 0.00 30 1011.5
20260503201821 60 289 3.0 5.0 0.00 0.00 0.00 31 1011.4
20260503201716 59 333 2.0 5.0 0.00 0.00 0.00 31 1011.5
20260503201628 59 303 6.0 12.0 0.00 0.00 0.00 30 1011.3
20260503201524 59 348 4.0 8.0 0.00 0.00 0.00 30 1011.3
20260503201439 59 355 4.0 8.0 0.00 0.00 0.00 30 1011.5
20260503201331 59 38 4.0 8.0 0.00 0.00 0.00 31 1011.4
20260503201226 59 345 5.0 10.0 0.00 0.00 0.00 30 1011.3
20260503201122 59 10 5.0 8.0 0.00 0.00 0.00 30 1011.1
20260503201018 59 345 6.0 9.0 0.00 0.00 0.00 30 1011.2
20260503200929 59 46 4.0 6.0 0.00 0.00 0.00 30 1011.5
20260503200845 59 355 6.0 13.0 0.00 0.00 0.00 30 1011.5
20260503200801 60 327 5.0 13.0 0.00 0.00 0.00 30 1011.4
20260503200616 60 18 2.0 4.0 0.00 0.00 0.00 31 1011.5
20260503200528 60 3 3.0 5.0 0.00 0.00 0.00 30 1011.4
20260503200423 60 44 3.0 5.0 0.00 0.00 0.00 31 1011.2
20260503200319 60 9 3.0 5.0 0.00 0.00 0.00 30 1011.4
20260503200231 60 272 2.0 4.0 0.00 0.00 0.00 31 1011.4
20260503200126 60 353 1.0 4.0 0.00 0.00 0.00 31 1011.4
20260503200022 60 329 3.0 4.0 0.00 0.00 0.00 30 1011.4
20260503195918 60 284 2.0 7.0 0.00 0.00 0.00 30 1011.5
20260503195829 60 341 4.0 10.0 0.00 0.00 0.00 30 1011.5
20260503195725 60 340 4.0 12.0 0.00 0.00 0.00 29 1011.6
20260503195620 60 332 4.0 7.0 0.00 0.00 0.00 32 1011.5
20260503195535 60 359 3.0 7.0 0.00 0.00 0.00 31 1011.5
20260503195427 60 342 4.0 9.0 0.00 0.00 0.00 31 1011.4
20260503195323 60 338 6.0 11.0 0.00 0.00 0.00 31 1011.4
20260503195219 60 32 5.0 6.0 0.00 0.00 0.00 30 1011.4
20260503195130 60 269 4.0 7.0 0.00 0.00 0.00 31 1011.5
20260503195106 60 257 4.0 8.0 0.00 0.00 0.00 30 1011.6
20260503194921 60 2 6.0 13.0 0.00 0.00 0.00 32 1011.4
20260503194817 60 45 3.0 5.0 0.00 0.00 0.00 30 1011.5
20260503194729 60 25 4.0 6.0 0.00 0.00 0.00 31 1011.4
20260503194624 60 47 2.0 6.0 0.00 0.00 0.00 32 1011.5
20260503194520 60 331 4.0 8.0 0.00 0.00 0.00 29 1011.7
20260503194416 60 274 4.0 9.0 0.00 0.00 0.00 31 1011.6
20260503194327 60 283 3.0 6.0 0.00 0.00 0.00 32 1011.8
20260503194223 60 339 3.0 7.0 0.00 0.00 0.00 30 1011.5
20260503194139 60 229 1.0 3.0 0.00 0.00 0.00 30 1011.5
20260503194030 60 346 2.0 6.0 0.00 0.00 0.00 30 1011.5
20260503193926 60 297 5.0 12.0 0.00 0.00 0.00 31 1011.8
20260503193821 60 203 3.0 11.0 0.00 0.00 0.00 32 1011.6
20260503193717 59 191 9.0 11.0 0.00 0.00 0.00 30 1011.5
20260503193629 59 335 3.0 10.0 0.00 0.00 0.00 31 1011.6
20260503193524 59 216 7.0 17.0 0.00 0.00 0.00 31 1011.6
20260503193420 59 253 9.0 14.0 0.00 0.00 0.00 30 1011.7
20260503193335 59 344 8.0 15.0 0.00 0.00 0.00 30 1011.7
20260503193247 60 322 6.0 16.0 0.00 0.00 0.00 31 1011.7
20260503193123 60 315 6.0 13.0 0.00 0.00 0.00 31 1011.9
20260503193019 59 289 3.0 4.0 0.00 0.00 0.00 33 1011.7
20260503192950 59 328 4.0 9.0 0.00 0.00 0.00 32 1011.6
20260503192846 59 349 5.0 9.0 0.00 0.00 0.00 30 1011.7
20260503192721 59 237 3.0 4.0 0.00 0.00 0.00 31 1012.1
20260503192617 59 324 4.0 10.0 0.00 0.00 0.00 32 1011.8
20260503192548 59 342 3.0 9.0 0.00 0.00 0.00 31 1012.0
20260503192424 59 336 5.0 8.0 0.00 0.00 0.00 31 1011.8
20260503192320 59 19 4.0 11.0 0.00 0.00 0.00 32 1011.7
20260503192215 59 359 4.0 6.0 0.00 0.00 0.00 31 1011.8
20260503192207 59 357 6.0 10.0 0.00 0.00 0.00 31 1011.9
20260503192023 59 353 4.0 5.0 0.00 0.00 0.00 32 1012.0
20260503191918 59 300 5.0 13.0 0.00 0.00 0.00 31 1012.0
20260503191850 58 271 3.0 5.0 0.00 0.00 0.00 34 1011.9
20260503191725 58 358 2.0 4.0 0.00 0.00 0.00 32 1011.9
20260503191621 58 270 1.0 4.0 0.00 0.00 0.00 34 1011.7
20260503191517 58 289 4.0 7.0 0.00 0.00 0.00 32 1011.8
20260503191428 58 4 3.0 6.0 0.00 0.00 0.00 32 1011.7
20260503191324 58 327 5.0 10.0 0.00 0.00 0.00 32 1011.8
20260503191220 58 341 4.0 6.0 0.00 0.00 0.00 32 1011.8
20260503191115 58 337 4.0 8.0 0.00 0.00 0.00 32 1011.9
20260503191027 58 324 3.0 9.0 0.00 0.00 0.00 32 1011.9
20260503190922 59 358 6.0 10.0 0.00 0.00 0.00 31 1011.9
20260503190818 59 336 6.0 11.0 0.00 0.00 0.00 31 1012.0
20260503190750 59 189 5.0 9.0 0.00 0.00 0.00 33 1012.0
20260503190625 59 335 7.0 12.0 0.00 0.00 0.00 32 1011.9
20260503190521 59 328 3.0 13.0 0.00 0.00 0.00 32 1011.9
20260503190416 59 252 6.0 15.0 0.00 0.00 0.00 32 1012.1
20260503190328 59 353 4.0 15.0 0.00 0.00 0.00 32 1011.9
20260503190224 59 341 4.0 12.0 0.00 0.00 0.00 31 1012.1
20260503190120 59 331 5.0 7.0 0.00 0.00 0.00 32 1011.8
20260503190015 58 318 5.0 12.0 0.00 0.00 0.00 33 1012.0
20260503190007 59 344 6.0 12.0 0.00 0.00 0.00 31 1012.0
20260503185822 59 340 8.0 14.0 0.00 0.00 0.00 32 1011.8
20260503185718 59 237 4.0 5.0 0.00 0.00 0.00 33 1011.9
20260503185629 59 336 5.0 10.0 0.00 0.00 0.00 32 1012.1
20260503185525 59 337 5.0 8.0 0.00 0.00 0.00 32 1012.0
20260503185421 59 219 5.0 8.0 0.00 0.00 0.00 33 1012.2
20260503185336 59 148 2.0 5.0 0.00 0.00 0.00 34 1012.2
20260503185248 59 17 3.0 7.0 0.00 0.00 0.00 34 1012.1
20260503185124 60 235 4.0 8.0 0.00 0.00 0.00 33 1012.2
20260503185059 60 343 4.0 6.0 0.00 0.00 0.00 33 1011.9
20260503184951 59 19 3.0 4.0 0.00 0.00 0.00 34 1012.1
20260503184826 59 195 3.0 5.0 0.00 0.00 0.00 34 1012.1
20260503184742 59 203 2.0 3.0 0.00 0.00 0.00 34 1012.1
20260503184618 59 261 3.0 6.0 0.00 0.00 0.00 35 1012.2
20260503184529 58 231 4.0 5.0 0.00 0.00 0.00 36 1012.0
20260503184425 58 91 3.0 5.0 0.00 0.00 0.00 34 1012.1
20260503184321 58 6 3.0 6.0 0.00 0.00 0.00 34 1012.4
20260503184216 58 345 3.0 6.0 0.00 0.00 0.00 33 1012.2
20260503184128 58 221 4.0 4.0 0.00 0.00 0.00 36 1012.2
20260503184023 58 356 3.0 6.0 0.00 0.00 0.00 34 1012.2
20260503183919 58 327 3.0 6.0 0.00 0.00 0.00 34 1012.3
20260503183830 57 256 3.0 4.0 0.00 0.00 0.00 36 1012.4
20260503183726 57 355 5.0 6.0 0.00 0.00 0.00 35 1012.3
20260503183622 57 353 5.0 7.0 0.00 0.00 0.00 34 1012.1
20260503183537 58 225 3.0 4.0 0.00 0.00 0.00 34 1012.4
20260503183429 58 166 3.0 8.0 0.00 0.00 0.00 33 1012.3
20260503183325 58 358 4.0 6.0 0.00 0.00 0.00 33 1012.4
20260503183220 58 320 4.0 6.0 0.00 0.00 0.00 35 1012.3
20260503183116 58 96 3.0 7.0 0.00 0.00 0.00 36 1012.4
20260503183027 57 318 3.0 5.0 0.00 0.00 0.00 35 1012.3
20260503182923 56 318 3.0 6.0 0.00 0.00 0.00 35 1012.1
20260503182818 56 99 1.0 4.0 0.00 0.00 0.00 35 1012.3
20260503182730 57 6 5.0 8.0 0.00 0.00 0.00 34 1012.2
20260503182626 57 352 7.0 12.0 0.00 0.00 0.00 34 1012.4
20260503182521 57 72 4.0 9.0 0.00 0.00 0.00 34 1012.3
20260503182417 57 353 4.0 8.0 0.00 0.00 0.00 34 1012.4
20260503182329 57 312 5.0 12.0 0.00 0.00 0.00 36 1012.2
20260503182225 56 16 2.0 4.0 0.00 0.00 0.00 36 1012.2
20260503182120 56 250 5.0 13.0 0.00 0.00 0.00 36 1012.3
20260503182015 56 343 8.0 13.0 0.00 0.00 0.00 34 1012.3
20260503181927 56 333 3.0 8.0 0.00 0.00 0.00 37 1012.3
20260503181823 56 73 2.0 4.0 0.00 0.00 0.00 37 1012.2
20260503181718 56 330 4.0 7.0 0.00 0.00 0.00 36 1012.1
20260503181630 56 235 3.0 5.0 0.00 0.00 0.00 36 1012.1
20260503181526 56 0 5.0 8.0 0.00 0.00 0.00 34 1012.1
20260503181421 57 11 5.0 8.0 0.00 0.00 0.00 34 1012.3
20260503181337 57 12 6.0 10.0 0.00 0.00 0.00 36 1012.3
20260503181228 57 234 2.0 4.0 0.00 0.00 0.00 36 1012.4
20260503181124 57 334 5.0 8.0 0.00 0.00 0.00 35 1012.1
20260503181020 57 346 2.0 3.0 0.00 0.00 0.00 36 1012.1
20260503180915 58 4 3.0 9.0 0.00 0.00 0.00 34 1012.3
20260503180827 58 2 5.0 9.0 0.00 0.00 0.00 34 1012.4
20260503180743 57 150 3.0 6.0 0.00 0.00 0.00 38 1012.3
20260503180618 57 328 4.0 11.0 0.00 0.00 0.00 35 1012.2
20260503180530 57 337 6.0 10.0 0.00 0.00 0.00 34 1012.2
20260503180425 57 351 4.0 8.0 0.00 0.00 0.00 35 1012.1
20260503180320 57 169 6.0 9.0 0.00 0.00 0.00 34 1012.4
20260503180216 58 285 6.0 14.0 0.00 0.00 0.00 35 1012.2
20260503180128 58 220 3.0 5.0 0.00 0.00 0.00 36 1012.1
20260503180024 58 314 6.0 12.0 0.00 0.00 0.00 34 1012.2
20260503175919 58 320 5.0 8.0 0.00 0.00 0.00 36 1012.3
20260503175851 57 244 4.0 6.0 0.00 0.00 0.00 37 1012.3
20260503175726 58 344 5.0 13.0 0.00 0.00 0.00 35 1012.4
20260503175622 58 12 5.0 12.0 0.00 0.00 0.00 38 1012.5
20260503175517 57 229 2.0 4.0 0.00 0.00 0.00 37 1012.5
20260503175429 57 282 3.0 4.0 0.00 0.00 0.00 40 1012.5
20260503175325 56 238 2.0 4.0 0.00 0.00 0.00 40 1012.2
20260503175220 56 204 3.0 11.0 0.00 0.00 0.00 37 1012.4
20260503175116 56 345 6.0 13.0 0.00 0.00 0.00 36 1012.3
20260503175028 56 9 5.0 9.0 0.00 0.00 0.00 38 1012.2
20260503174923 55 356 3.0 4.0 0.00 0.00 0.00 38 1012.5
20260503174818 55 352 2.0 5.0 0.00 0.00 0.00 37 1012.6
20260503174730 56 316 4.0 8.0 0.00 0.00 0.00 36 1012.4
20260503174626 57 272 4.0 9.0 0.00 0.00 0.00 37 1012.4
20260503174521 57 352 3.0 4.0 0.00 0.00 0.00 37 1012.6
20260503174417 57 353 4.0 6.0 0.00 0.00 0.00 39 1012.6
20260503174349 57 261 4.0 10.0 0.00 0.00 0.00 37 1012.6
20260503174224 57 309 4.0 7.0 0.00 0.00 0.00 39 1012.6
20260503174120 57 269 3.0 5.0 0.00 0.00 0.00 39 1012.5
20260503174015 57 20 4.0 5.0 0.00 0.00 0.00 37 1012.5
20260503173927 56 4 4.0 7.0 0.00 0.00 0.00 38 1012.4
20260503173823 56 5 5.0 6.0 0.00 0.00 0.00 38 1012.6
20260503173718 56 18 3.0 5.0 0.00 0.00 0.00 39 1012.6
20260503173630 56 70 4.0 7.0 0.00 0.00 0.00 38 1012.6
20260503173526 56 350 5.0 9.0 0.00 0.00 0.00 37 1012.6
20260503173421 56 289 4.0 7.0 0.00 0.00 0.00 39 1012.6
20260503173317 56 10 4.0 9.0 0.00 0.00 0.00 37 1012.8
20260503173228 56 265 4.0 7.0 0.00 0.00 0.00 38 1012.8
20260503173124 56 338 6.0 11.0 0.00 0.00 0.00 38 1012.7
20260503173020 56 245 5.0 10.0 0.00 0.00 0.00 39 1012.8
20260503172915 56 336 4.0 6.0 0.00 0.00 0.00 40 1012.7
20260503172827 55 5 3.0 5.0 0.00 0.00 0.00 40 1012.8
20260503172722 55 24 4.0 9.0 0.00 0.00 0.00 39 1012.9
20260503172618 55 38 6.0 9.0 0.00 0.00 0.00 39 1012.8
20260503172530 55 345 5.0 10.0 0.00 0.00 0.00 40 1012.8
20260503172425 54 327 5.0 11.0 0.00 0.00 0.00 40 1012.8
20260503172401 54 202 4.0 6.0 0.00 0.00 0.00 41 1012.7
20260503172228 54 212 2.0 4.0 0.00 0.00 0.00 38 1012.6
20260503172024 53 297 3.0 9.0 0.00 0.00 0.00 40 1012.5
20260503171919 54 312 5.0 11.0 0.00 0.00 0.00 38 1012.8
20260503171831 54 305 4.0 9.0 0.00 0.00 0.00 39 1012.9
20260503171726 54 186 2.0 4.0 0.00 0.00 0.00 40 1012.7
20260503171622 54 187 2.0 4.0 0.00 0.00 0.00 41 1012.5
20260503171518 54 54 2.0 4.0 0.00 0.00 0.00 39 1012.9
20260503171429 54 203 3.0 6.0 0.00 0.00 0.00 40 1012.9
20260503171325 54 234 3.0 6.0 0.00 0.00 0.00 40 1012.9
20260503171221 53 200 4.0 8.0 0.00 0.00 0.00 40 1012.8
20260503171136 53 342 3.0 6.0 0.00 0.00 0.00 40 1012.8
20260503171028 53 49 3.0 6.0 0.00 0.00 0.00 40 1012.9
20260503170943 53 218 3.0 6.0 0.00 0.00 0.00 41 1012.8
20260503170819 53 356 6.0 11.0 0.00 0.00 0.00 39 1012.7
20260503170730 53 338 8.0 12.0 0.00 0.00 0.00 39 1012.7
20260503170646 54 329 5.0 9.0 0.00 0.00 0.00 40 1012.8
20260503170522 54 332 6.0 14.0 0.00 0.00 0.00 39 1012.7
20260503170417 55 329 4.0 6.0 0.00 0.00 0.00 39 1012.9
20260503170329 55 168 2.0 5.0 0.00 0.00 0.00 40 1013.1
20260503170224 54 356 4.0 5.0 0.00 0.00 0.00 40 1012.7
20260503170120 54 20 3.0 5.0 0.00 0.00 0.00 41 1012.9
20260503160216 52 350 4.0 9.0 0.00 0.00 0.00 42 1013.4
20260503160128 53 341 6.0 9.0 0.00 0.00 0.00 41 1013.2
20260503150925 53 17 5.0 8.0 0.00 0.00 0.00 39 1013.4
20260503150820 53 355 5.0 7.0 0.00 0.00 0.00 40 1013.3
20260503150716 52 315 3.0 5.0 0.00 0.00 0.00 41 1013.4
20260503150628 52 38 2.0 9.0 0.00 0.00 0.00 40 1013.3
20260503150523 52 326 4.0 10.0 0.00 0.00 0.00 41 1013.4
20260503150419 52 30 5.0 6.0 0.00 0.00 0.00 41 1013.5
20260503150331 52 313 5.0 8.0 0.00 0.00 0.00 41 1013.5
20260503150226 52 355 5.0 10.0 0.00 0.00 0.00 41 1013.5
20260503150142 52 357 5.0 10.0 0.00 0.00 0.00 40 1013.1